Printer-friendly version

IAU Minor Planet Center

Minor Planet Center

MPEC 2006-K80 : 2006 KV89

The following Minor Planet Electronic Circular may be linked-to from your own Web pages, but must not otherwise be redistributed electronically.


Read MPEC 2006-K79 Read MPEC 2006-K81


M.P.E.C. 2006-K80                                Issued 2006 May 30, 21:30 UT

     The Minor Planet Electronic Circulars contain information on unusual
         minor planets and routine data on comets.  They are published
   on behalf of Commission 20 of the International Astronomical Union by the
          Minor Planet Center, Smithsonian Astrophysical Observatory,
                          Cambridge, MA 02138, U.S.A.

                  Supported in part by the Brinson Foundation
                  Supported in part by the TABASGO Foundation
             Prepared using the Tamkin Foundation Computer Network

                              MPC@CFA.HARVARD.EDU
          URL http://cfa-www.harvard.edu/iau/mpc.html  ISSN 1523-6714

                                   2006 KV89

Observations:
     K06K89V* C2006 05 28.16543 10 54 49.24 +14 16 50.6          19.1   EK080704
     K06K89V  C2006 05 28.17846 10 54 58.31 +14 15 21.6          19.4   EK080704
     K06K89V  C2006 05 28.19089 10 55 06.94 +14 13 57.6          19.6   EK080704
     K06K89V  C2006 05 28.20229 10 55 15.08 +14 12 38.6          19.7   EK080704
     K06K89V  C2006 05 28.21379 10 55 23.19 +14 11 21.1          19.7   EK080704
     K06K89V  C2006 05 29.15661 11 06 39.37 +12 24 54.7          19.1   EK080704
     K06K89V  C2006 05 29.16834 11 06 47.32 +12 23 35.1          19.8   EK080704
     K06K89V  C2006 05 29.18009 11 06 55.32 +12 22 13.4          19.4   EK080704
     K06K89V  C2006 05 29.19186 11 07 03.37 +12 20 53.9          19.6   EK080704
     K06K89V  C2006 05 29.20365 11 07 11.41 +12 19 31.9          19.6   EK080704
     K06K89V  C2006 05 30.15456 11 18 15.87 +10 31 42.3          19.2   EK080704
     K06K89V  C2006 05 30.16660 11 18 23.71 +10 30 20.1          19.0   EK080704
     K06K89V  C2006 05 30.17880 11 18 31.88 +10 28 56.3          19.7   EK080704
     K06K89V  C2006 05 30.20304 11 18 47.95 +10 26 11.2          19.8   EK080704

Observer details:
704 Lincoln Laboratory ETS, New Mexico.  Observers M. Bezpalko, L. Manguso,
    D. Torres, R. Kracke, M. Blythe, H. Love, G. Spitz.  Measurers J. Stuart,
    J. Kommers.  1.0-m f/2.15 reflector + CCD.

Orbital elements:
2006 KV89                                           PHA, Earth MOID = 0.0140 AU
Epoch 2006 Mar. 6.0 TT = JDT 2453800.5                  MPC
M 345.49730              (2000.0)            P               Q
n   0.80155610     Peri.   87.57582     -0.93449052     -0.35114120
a   1.1477486      Node    71.86238     +0.29721092     -0.86009228
e   0.2708290      Incl.    3.53191     +0.19594166     -0.37005558
P   1.23           H   20.8           G   0.15           U   9
Residuals in seconds of arc
060528 704  0.3+  0.0     060529 704  0.6+  0.2-    060530 704  0.7+  0.3-
060528 704  0.3-  0.3-    060529 704  0.1+  0.5+    060530 704  1.1-  0.1-
060528 704  1.4-  0.5+    060529 704  0.1-  0.6-    060530 704  0.3+  0.4-
060528 704  0.6+  0.8-    060529 704  0.1+  0.8+    060530 704  0.1+  0.6+
060528 704  0.9+  0.3+    060529 704  0.3-  0.2-

Ephemeris:
2006 KV89                a,e,i = 1.15, 0.27, 4                   q = 0.8369
Date    TT    R. A. (2000) Decl.     Delta      r     Elong.  Phase     V
2006 05 25    10 15.56   +19 59.3    0.100    1.009    85.1    89.3    19.0
2006 06 04    12 09.48   +01 46.3    0.110    1.054   108.3    66.1    18.4
2006 06 14    13 27.44   -11 23.4    0.146    1.099   121.7    51.8    18.7
2006 06 24    14 18.69   -18 34.4    0.197    1.143   126.2    45.9    19.3
2006 07 04    14 55.92   -22 35.6    0.257    1.186   126.1    43.8    19.9
2006 07 14    15 26.09   -25 01.7    0.324    1.227   123.9    43.5    20.5
2006 07 24    15 52.67   -26 35.5    0.397    1.265   120.6    43.7    21.0
2006 08 03    16 17.61   -27 37.8    0.475    1.300   116.7    44.2    21.5
2006 08 13    16 41.83   -28 18.1    0.559    1.332   112.6    44.6    21.9

Kyle E. Smalley              (C) Copyright 2006 MPC           M.P.E.C. 2006-K80

Read MPEC 2006-K79 Read MPEC 2006-K81


Our Web policy. Index to the CBAT/MPC/ICQ pages.


Valid HTML 4.01!